Simultaneous Nadir Overpasses (SNOs) Predictions

Prediction of SNOs between AQUA and NOAA-19 Satellite Orbit:

Table of predicted SNOs for the next 14.0 days since TLE Epoch: 1/4/2013
Index Date (AQUA) Time (AQUA) Lat,Lon (AQUA) SZA (AQUA ) Date (NOAA-19) Time (NOAA-19) Lat,Lon (NOAA-19) SZA (NOAA-19 ) Distance(km) Time Diff (sec)
1 01/05/2013 08:28:03 46.53, -94.46 145.38 01/05/2013 08:28:11 46.43, -93.89 145.08 44.63 8
2 01/05/2013 09:04:26 -80.64,-172.87 74.95 01/05/2013 09:05:39 -80.02,-174.79 75.28 77.35 73
3 01/07/2013 13:12:08 47.23,-165.26 144.79 01/07/2013 13:12:28 47.11,-164.72 144.50 42.38 20
4 01/07/2013 13:38:01 -46.09, 170.76 110.66 01/07/2013 13:39:06 -45.92, 169.74 110.95 81.02 65
5 01/09/2013 17:07:21 -46.03, -44.43 34.44 01/09/2013 17:06:17 -45.86, -43.59 34.69 67.94 64
6 01/09/2013 17:56:12 47.95, 123.96 144.14 01/09/2013 17:56:44 47.85, 124.47 143.84 39.97 32
7 01/11/2013 21:51:36 -46.04,-115.48 34.59 01/11/2013 21:50:46 -45.87,-114.69 34.84 64.20 50
8 01/11/2013 22:40:15 48.67, 53.19 143.43 01/11/2013 22:41:00 48.58, 53.68 143.12 37.52 45
9 01/14/2013 02:17:45 -66.52, -29.90 92.30 01/14/2013 02:16:32 -66.32, -31.13 92.51 58.82 73
10 01/14/2013 03:24:16 49.47, -17.54 142.61 01/14/2013 03:25:14 49.41, -17.07 142.27 35.15 58
11 01/16/2013 06:57:15 -50.07, -90.34 108.48 01/16/2013 06:56:07 -49.94, -90.90 108.70 42.06 68
12 01/16/2013 08:08:16 50.29, -88.25 141.72 01/16/2013 08:09:28 50.24, -87.80 141.37 32.74 72
13 01/18/2013 11:41:13 -49.18,-161.02 109.77 01/18/2013 11:40:20 -49.05,-161.61 110.00 44.91 53




NCC Satellite Simultaneous Nadir Overpasses (SNOs) Prediction Service
